User: anonymous   Login
Location: Sungai Laei
(2.6000°N, 113.7167°E)
Time: 08:44:15
(UTC+00:00)
Language:

Cosmos 2251 Rocket - Orbit

View from above orbital plane
View from above orbital plane
View from above satellite
View from above satellite

Ground track
Ground track

The orbit data is extracted from the following two-line orbital elements,

1 22676U 93036B   22222.58491184  .00000073  00000-0  35355-4 0  9999
2 22676  74.0444 342.4211 0019786 269.6568  90.2317 14.34127749524575
Epoch (UTC): 10 August 2022 14:02:16
Eccentricity: 0.0019786
inclination: 74.0444°
perigee height: 764 km
apogee height: 792 km
right ascension of ascending node: 342.4211°
argument of perigee: 269.6568°
revolutions per day: 14.34127749
mean anomaly at epoch: 90.2317°
orbit number at epoch: 52457

The dashed part of the orbit path shows where the satellite is in the earth's shadow,  

DLR